| time (UTC) | temp C | wind direction | speed KPH | gust KPH | rain 1hr cm | rain 24hr cm | rain mn cm | humidity % | barometer mb |
| 20260906131317 | 30 | 346 | 12.9 | 17.7 | 0.00 | 0.00 | 0.00 | 59 | 1007.9 |
| 20260906130813 | 30 | 267 | 14.5 | 20.9 | 0.00 | 0.00 | 0.00 | 61 | 1007.9 |
| 20260906130313 | 30 | 254 | 8.0 | 17.7 | 0.00 | 0.00 | 0.00 | 59 | 1008.0 |
| 20260906125811 | 30 | 341 | 6.4 | 14.5 | 0.00 | 0.00 | 0.00 | 60 | 1008.0 |
| 20260906125306 | 30 | 281 | 12.9 | 20.9 | 0.00 | 0.00 | 0.00 | 59 | 1008.0 |
| 20260906124758 | 30 | 301 | 12.9 | 14.5 | 0.00 | 0.00 | 0.00 | 57 | 1007.9 |
| 20260906124255 | 30 | 325 | 17.7 | 20.9 | 0.00 | 0.00 | 0.00 | 55 | 1008.0 |
| 20260906123753 | 30 | 333 | 14.5 | 17.7 | 0.00 | 0.00 | 0.00 | 57 | 1007.9 |
| 20260906123248 | 30 | 247 | 4.8 | 14.5 | 0.00 | 0.00 | 0.00 | 59 | 1008.0 |
| 20260906122748 | 30 | 249 | 17.7 | 24.1 | 0.00 | 0.00 | 0.00 | 55 | 1007.9 |
| 20260906122243 | 30 | 352 | 20.9 | 27.4 | 0.00 | 0.00 | 0.00 | 56 | 1008.0 |
| 20260906121740 | 30 | 224 | 9.7 | 17.7 | 0.00 | 0.00 | 0.00 | 58 | 1008.2 |
| 20260906121236 | 30 | 351 | 11.3 | 24.1 | 0.00 | 0.00 | 0.00 | 59 | 1007.9 |
| 20260906120731 | 30 | 266 | 14.5 | 17.7 | 0.00 | 0.00 | 0.00 | 60 | 1007.9 |
| 20260906120228 | 30 | 352 | 9.7 | 14.5 | 0.00 | 0.00 | 0.00 | 60 | 1008.1 |
| 20260906115723 | 30 | 277 | 19.3 | 22.5 | 0.00 | 0.00 | 0.00 | 58 | 1008.2 |
| 20260906115218 | 30 | 337 | 22.5 | 24.1 | 0.00 | 0.00 | 0.00 | 58 | 1008.1 |
| 20260906114717 | 30 | 285 | 9.7 | 20.9 | 0.00 | 0.00 | 0.00 | 59 | 1008.2 |
| 20260906114212 | 29 | 309 | 14.5 | 20.9 | 0.00 | 0.00 | 0.00 | 59 | 1008.2 |
| 20260906113708 | 29 | 333 | 14.5 | 22.5 | 0.00 | 0.00 | 0.00 | 63 | 1008.2 |
| 20260906113207 | 30 | 279 | 17.7 | 29.0 | 0.00 | 0.00 | 0.00 | 62 | 1008.4 |
| 20260906112706 | 30 | 287 | 14.5 | 17.7 | 0.00 | 0.00 | 0.00 | 63 | 1008.4 |
| 20260906112203 | 30 | 346 | 14.5 | 27.4 | 0.00 | 0.00 | 0.00 | 62 | 1008.2 |
| 20260906111703 | 30 | 348 | 19.3 | 29.0 | 0.00 | 0.00 | 0.00 | 59 | 1008.3 |
| 20260906111157 | 30 | 207 | 14.5 | 20.9 | 0.00 | 0.00 | 0.00 | 61 | 1008.5 |
| 20260906110652 | 30 | 310 | 12.9 | 17.7 | 0.00 | 0.00 | 0.00 | 61 | 1008.4 |
| 20260906110142 | 30 | 241 | 11.3 | 14.5 | 0.00 | 0.00 | 0.00 | 61 | 1008.3 |
| 20260906105636 | 30 | 286 | 14.5 | 24.1 | 0.00 | 0.00 | 0.00 | 63 | 1008.2 |
| 20260906105133 | 30 | 249 | 16.1 | 20.9 | 0.00 | 0.00 | 0.00 | 60 | 1008.4 |
| 20260906104631 | 30 | 281 | 12.9 | 16.1 | 0.00 | 0.00 | 0.00 | 61 | 1008.4 |
| 20260906104130 | 30 | 349 | 17.7 | 25.7 | 0.00 | 0.00 | 0.00 | 59 | 1008.2 |
| 20260906103629 | 30 | 347 | 19.3 | 27.4 | 0.00 | 0.00 | 0.00 | 58 | 1008.2 |
| 20260906103124 | 30 | 358 | 9.7 | 24.1 | 0.00 | 0.00 | 0.00 | 58 | 1008.3 |
| 20260906102619 | 31 | 283 | 14.5 | 25.7 | 0.00 | 0.00 | 0.00 | 57 | 1008.3 |
| 20260906102114 | 31 | 286 | 12.9 | 29.0 | 0.00 | 0.00 | 0.00 | 54 | 1008.3 |
| 20260906101614 | 31 | 284 | 14.5 | 24.1 | 0.00 | 0.00 | 0.00 | 53 | 1008.3 |
| 20260906101114 | 31 | 277 | 19.3 | 24.1 | 0.00 | 0.00 | 0.00 | 50 | 1008.2 |
| 20260906100610 | 31 | 277 | 9.7 | 12.9 | 0.00 | 0.00 | 0.00 | 50 | 1008.1 |
| 20260906100110 | 31 | 339 | 17.7 | 24.1 | 0.00 | 0.00 | 0.00 | 50 | 1008.2 |
| 20260906095610 | 31 | 303 | 11.3 | 20.9 | 0.00 | 0.00 | 0.00 | 51 | 1008.2 |
| 20260906095105 | 31 | 235 | 19.3 | 22.5 | 0.00 | 0.00 | 0.00 | 52 | 1007.9 |
| 20260906094604 | 31 | 313 | 11.3 | 25.7 | 0.00 | 0.00 | 0.00 | 54 | 1008.0 |
| 20260906094100 | 31 | 345 | 11.3 | 20.9 | 0.00 | 0.00 | 0.00 | 51 | 1008.2 |
| 20260906093556 | 31 | 338 | 14.5 | 22.5 | 0.00 | 0.00 | 0.00 | 46 | 1007.9 |
| 20260906093051 | 31 | 299 | 6.4 | 12.9 | 0.00 | 0.00 | 0.00 | 49 | 1007.9 |
| 20260906092546 | 31 | 283 | 3.2 | 12.9 | 0.00 | 0.00 | 0.00 | 51 | 1008.0 |
| 20260906092041 | 31 | 266 | 3.2 | 14.5 | 0.00 | 0.00 | 0.00 | 50 | 1008.2 |
| 20260906091536 | 31 | 288 | 11.3 | 20.9 | 0.00 | 0.00 | 0.00 | 47 | 1008.5 |
| 20260906091033 | 31 | 2 | 8.0 | 14.5 | 0.00 | 0.00 | 0.00 | 45 | 1008.1 |
| 20260906090527 | 31 | 351 | 9.7 | 12.9 | 0.00 | 0.00 | 0.00 | 49 | 1008.2 |
| 20260906090022 | 31 | 257 | 14.5 | 17.7 | 0.00 | 0.00 | 0.00 | 51 | 1008.1 |
| 20260906085521 | 31 | 236 | 14.5 | 16.1 | 0.00 | 0.00 | 0.00 | 52 | 1008.2 |
| 20260906085022 | 31 | 240 | 14.5 | 17.7 | 0.00 | 0.00 | 0.00 | 48 | 1008.0 |
| 20260906084521 | 30 | 248 | 4.8 | 9.7 | 0.00 | 0.00 | 0.00 | 53 | 1008.1 |
| 20260906084020 | 31 | 192 | 8.0 | 12.9 | 0.00 | 0.00 | 0.00 | 56 | 1008.1 |
| 20260906083516 | 30 | 236 | 11.3 | 12.9 | 0.00 | 0.00 | 0.00 | 55 | 1008.3 |
| 20260906083015 | 30 | 277 | 8.0 | 11.3 | 0.00 | 0.00 | 0.00 | 57 | 1008.3 |
| 20260906082510 | 31 | 172 | 3.2 | 4.8 | 0.00 | 0.00 | 0.00 | 56 | 1008.4 |
| 20260906082006 | 30 | 186 | 6.4 | 8.0 | 0.00 | 0.00 | 0.00 | 57 | 1008.4 |
| 20260906081502 | 30 | 266 | 6.4 | 8.0 | 0.00 | 0.00 | 0.00 | 59 | 1008.6 |
| 20260906080957 | 29 | 254 | 11.3 | 16.1 | 0.00 | 0.00 | 0.00 | 56 | 1008.7 |
| 20260906080454 | 29 | 213 | 8.0 | 11.3 | 0.00 | 0.00 | 0.00 | 60 | 1008.7 |
| 20260906075949 | 29 | 248 | 3.2 | 11.3 | 0.00 | 0.00 | 0.00 | 61 | 1008.7 |
| 20260906075444 | 29 | 237 | 4.8 | 9.7 | 0.00 | 0.00 | 0.00 | 62 | 1008.8 |
| 20260906074939 | 28 | 233 | 9.7 | 16.1 | 0.00 | 0.00 | 0.00 | 63 | 1009.1 |
| 20260906074438 | 29 | 239 | 14.5 | 17.7 | 0.00 | 0.00 | 0.00 | 62 | 1008.9 |
| 20260906073937 | 29 | 304 | 8.0 | 11.3 | 0.00 | 0.00 | 0.00 | 61 | 1008.8 |
| 20260906073432 | 28 | 257 | 4.8 | 9.7 | 0.00 | 0.00 | 0.00 | 62 | 1009.0 |
| 20260906072928 | 28 | 248 | 11.3 | 12.9 | 0.00 | 0.00 | 0.00 | 63 | 1009.0 |
| 20260906072418 | 29 | 228 | 8.0 | 12.9 | 0.00 | 0.00 | 0.00 | 64 | 1009.2 |
| 20260906071914 | 28 | 275 | 6.4 | 9.7 | 0.00 | 0.00 | 0.00 | 66 | 1009.3 |
| 20260906071409 | 28 | 244 | 8.0 | 17.7 | 0.00 | 0.00 | 0.00 | 66 | 1009.2 |
| 20260906070905 | 28 | 197 | 8.0 | 14.5 | 0.00 | 0.00 | 0.00 | 67 | 1009.1 |
| 20260906070400 | 27 | 249 | 9.7 | 12.9 | 0.00 | 0.00 | 0.00 | 67 | 1009.2 |
| 20260906065851 | 27 | 274 | 9.7 | 14.5 | 0.00 | 0.00 | 0.00 | 68 | 1009.2 |
| 20260906065350 | 28 | 276 | 6.4 | 12.9 | 0.00 | 0.00 | 0.00 | 69 | 1009.2 |
| 20260906064846 | 27 | 285 | 6.4 | 14.5 | 0.00 | 0.00 | 0.00 | 70 | 1009.2 |
| 20260906064337 | 28 | 189 | 9.7 | 11.3 | 0.00 | 0.00 | 0.00 | 70 | 1008.8 |
| 20260906063836 | 27 | 221 | 6.4 | 14.5 | 0.00 | 0.00 | 0.00 | 71 | 1009.1 |
| 20260906063332 | 27 | 234 | 4.8 | 11.3 | 0.00 | 0.00 | 0.00 | 71 | 1008.6 |
| 20260906062827 | 27 | 119 | 1.6 | 8.0 | 0.00 | 0.00 | 0.00 | 73 | 1008.9 |
| 20260906062326 | 27 | 252 | 6.4 | 11.3 | 0.00 | 0.00 | 0.00 | 73 | 1009.0 |
| 20260906061821 | 27 | 276 | 8.0 | 17.7 | 0.00 | 0.00 | 0.00 | 73 | 1009.0 |
| 20260906061312 | 27 | 239 | 4.8 | 9.7 | 0.00 | 0.00 | 0.00 | 75 | 1008.9 |
| 20260906060806 | 27 | 237 | 3.2 | 11.3 | 0.00 | 0.00 | 0.00 | 76 | 1008.9 |
| 20260906060304 | 26 | 240 | 12.9 | 16.1 | 0.00 | 0.00 | 0.00 | 76 | 1008.6 |
| 20260906055800 | 27 | 208 | 4.8 | 14.5 | 0.00 | 0.00 | 0.00 | 76 | 1008.7 |
| 20260906055255 | 26 | 288 | 9.7 | 14.5 | 0.00 | 0.00 | 0.00 | 77 | 1008.6 |
| 20260906054750 | 26 | 185 | 4.8 | 16.1 | 0.00 | 0.00 | 0.00 | 77 | 1008.7 |
| 20260906054246 | 26 | 246 | 6.4 | 14.5 | 0.00 | 0.00 | 0.00 | 78 | 1008.6 |
| 20260906053742 | 26 | 236 | 8.0 | 14.5 | 0.00 | 0.00 | 0.00 | 78 | 1008.6 |
| 20260906053238 | 26 | 239 | 9.7 | 14.5 | 0.00 | 0.00 | 0.00 | 78 | 1008.6 |
| 20260906052732 | 26 | 228 | 4.8 | 9.7 | 0.00 | 0.00 | 0.00 | 78 | 1008.6 |
| 20260906052228 | 26 | 242 | 6.4 | 12.9 | 0.00 | 0.00 | 0.00 | 79 | 1008.8 |
| 20260906051725 | 26 | 195 | 4.8 | 12.9 | 0.00 | 0.00 | 0.00 | 79 | 1008.7 |
| 20260906051224 | 26 | 250 | 6.4 | 11.3 | 0.00 | 0.00 | 0.00 | 79 | 1008.4 |
| 20260906050715 | 26 | 218 | 3.2 | 9.7 | 0.00 | 0.00 | 0.00 | 80 | 1008.5 |
| 20260906050210 | 25 | 241 | 4.8 | 9.7 | 0.00 | 0.00 | 0.00 | 81 | 1008.5 |
| 20260906045708 | 25 | 208 | 3.2 | 4.8 | 0.00 | 0.00 | 0.00 | 82 | 1008.4 |
| 20260906045203 | 25 | 195 | 1.6 | 8.0 | 0.00 | 0.00 | 0.00 | 82 | 1008.6 |
| 20260906044659 | 25 | 215 | 3.2 | 8.0 | 0.00 | 0.00 | 0.00 | 83 | 1008.5 |
| 20260906044154 | 25 | 268 | 6.4 | 9.7 | 0.00 | 0.00 | 0.00 | 84 | 1008.6 |
| 20260906043650 | 25 | 256 | 4.8 | 8.0 | 0.00 | 0.00 | 0.00 | 84 | 1008.4 |
| 20260906043146 | 25 | 163 | 4.8 | 4.8 | 0.00 | 0.00 | 0.00 | 85 | 1008.9 |
| 20260906042645 | 24 | 118 | 0.0 | 3.2 | 0.00 | 0.00 | 0.00 | 85 | 1008.5 |
| 20260906042139 | 24 | 236 | 1.6 | 3.2 | 0.00 | 0.00 | 0.00 | 85 | 1008.7 |
| 20260906041635 | 24 | 193 | 8.0 | 9.7 | 0.00 | 0.00 | 0.00 | 86 | 1008.5 |
| 20260906041129 | 23 | 170 | 1.6 | 3.2 | 0.00 | 0.00 | 0.00 | 86 | 1008.5 |
| 20260906040625 | 23 | 78 | 0.0 | 0.0 | 0.00 | 0.00 | 0.00 | 87 | 1008.5 |
| 20260906040120 | 23 | 40 | 0.0 | 0.0 | 0.00 | 0.00 | 0.00 | 86 | 1008.6 |
| 20260906035615 | 23 | 61 | 0.0 | 1.6 | 0.00 | 0.00 | 0.00 | 86 | 1008.4 |
| 20260906035111 | 23 | 60 | 0.0 | 0.0 | 0.00 | 0.00 | 0.00 | 87 | 1008.5 |
| 20260906034606 | 22 | 75 | 0.0 | 0.0 | 0.00 | 0.00 | 0.00 | 87 | 1008.5 |
| 20260906034101 | 22 | 57 | 0.0 | 0.0 | 0.00 | 0.00 | 0.00 | 87 | 1008.4 |
| 20260906033556 | 22 | 32 | 0.0 | 0.0 | 0.00 | 0.00 | 0.00 | 87 | 1008.3 |
| 20260906033051 | 22 | 27 | 0.0 | 0.0 | 0.00 | 0.00 | 0.00 | 87 | 1008.3 |
| 20260906032548 | 22 | 22 | 0.0 | 0.0 | 0.00 | 0.00 | 0.00 | 86 | 1008.1 |
| 20260906032047 | 22 | 57 | 0.0 | 0.0 | 0.00 | 0.00 | 0.00 | 87 | 1008.0 |
| 20260906031543 | 22 | 39 | 0.0 | 0.0 | 0.00 | 0.00 | 0.00 | 87 | 1008.1 |
| 20260906031039 | 22 | 3 | 0.0 | 0.0 | 0.00 | 0.00 | 0.00 | 87 | 1008.1 |
| 20260906030538 | 22 | 13 | 0.0 | 0.0 | 0.00 | 0.00 | 0.00 | 86 | 1008.0 |
| 20260906030037 | 22 | 48 | 0.0 | 0.0 | 0.00 | 0.00 | 0.00 | 87 | 1008.3 |
| 20260906025532 | 22 | 34 | 0.0 | 0.0 | 0.00 | 0.00 | 0.00 | 87 | 1008.2 |
| 20260906025030 | 22 | 18 | 0.0 | 0.0 | 0.00 | 0.00 | 0.00 | 86 | 1008.0 |
| 20260906024525 | 22 | 31 | 0.0 | 0.0 | 0.00 | 0.00 | 0.00 | 87 | 1008.1 |
| 20260906024019 | 22 | 72 | 0.0 | 0.0 | 0.00 | 0.00 | 0.00 | 87 | 1008.0 |
| 20260906023515 | 22 | 348 | 0.0 | 0.0 | 0.00 | 0.00 | 0.00 | 86 | 1008.1 |
| 20260906023010 | 22 | 50 | 0.0 | 0.0 | 0.00 | 0.00 | 0.00 | 86 | 1008.0 |
| 20260906022506 | 22 | 31 | 0.0 | 0.0 | 0.00 | 0.00 | 0.00 | 86 | 1008.3 |
| 20260906022000 | 22 | 6 | 0.0 | 0.0 | 0.00 | 0.00 | 0.00 | 86 | 1008.0 |
| 20260906021455 | 22 | 60 | 0.0 | 0.0 | 0.00 | 0.00 | 0.00 | 86 | 1008.0 |
| 20260906020950 | 22 | 10 | 0.0 | 0.0 | 0.00 | 0.00 | 0.00 | 86 | 1007.9 |
| 20260906020444 | 22 | 25 | 0.0 | 0.0 | 0.00 | 0.00 | 0.00 | 86 | 1008.0 |
| 20260906015938 | 22 | 41 | 0.0 | 0.0 | 0.00 | 0.00 | 0.00 | 86 | 1008.0 |
| 20260906015432 | 22 | 41 | 0.0 | 0.0 | 0.00 | 0.00 | 0.00 | 86 | 1008.0 |
| 20260906014927 | 22 | 21 | 0.0 | 0.0 | 0.00 | 0.00 | 0.00 | 86 | 1008.0 |
| 20260906014426 | 22 | 81 | 4.8 | 4.8 | 0.00 | 0.00 | 0.00 | 86 | 1007.8 |
| 20260906013922 | 22 | 27 | 0.0 | 0.0 | 0.00 | 0.00 | 0.00 | 86 | 1007.8 |
| 20260906013417 | 22 | 50 | 0.0 | 0.0 | 0.00 | 0.00 | 0.00 | 86 | 1007.7 |
| 20260906012913 | 22 | 50 | 0.0 | 0.0 | 0.00 | 0.00 | 0.00 | 86 | 1007.7 |
| 20260906012408 | 22 | 47 | 0.0 | 0.0 | 0.00 | 0.00 | 0.00 | 86 | 1007.7 |
| 20260906011907 | 22 | 47 | 0.0 | 0.0 | 0.00 | 0.00 | 0.00 | 86 | 1007.7 |
| 20260906011402 | 22 | 40 | 0.0 | 0.0 | 0.00 | 0.00 | 0.00 | 86 | 1007.8 |
| 20260906010858 | 22 | 54 | 0.0 | 0.0 | 0.00 | 0.00 | 0.00 | 86 | 1007.8 |
| 20260906010353 | 22 | 19 | 0.0 | 0.0 | 0.00 | 0.00 | 0.00 | 85 | 1007.8 |
| 20260906005849 | 22 | 38 | 0.0 | 0.0 | 0.00 | 0.00 | 0.00 | 85 | 1007.9 |
| 20260906005348 | 22 | 46 | 0.0 | 0.0 | 0.00 | 0.00 | 0.00 | 85 | 1007.6 |
| 20260906004848 | 22 | 60 | 0.0 | 0.0 | 0.00 | 0.00 | 0.00 | 85 | 1007.7 |
| 20260906004347 | 23 | 38 | 0.0 | 0.0 | 0.00 | 0.00 | 0.00 | 85 | 1007.7 |
| 20260906003842 | 22 | 51 | 0.0 | 0.0 | 0.00 | 0.00 | 0.00 | 85 | 1007.9 |
| 20260906003337 | 23 | 24 | 0.0 | 0.0 | 0.00 | 0.00 | 0.00 | 85 | 1007.8 |
| 20260906002833 | 23 | 99 | 1.6 | 1.6 | 0.00 | 0.00 | 0.00 | 85 | 1007.7 |
| 20260906002332 | 23 | 43 | 0.0 | 1.6 | 0.00 | 0.00 | 0.00 | 85 | 1007.4 |
| 20260906001828 | 23 | 54 | 0.0 | 0.0 | 0.00 | 0.00 | 0.00 | 85 | 1007.5 |
| 20260906001323 | 23 | 68 | 0.0 | 3.2 | 0.00 | 0.00 | 0.00 | 85 | 1007.7 |
| 20260906000818 | 23 | 65 | 0.0 | 1.6 | 0.00 | 0.00 | 0.00 | 84 | 1007.8 |
| 20260906000313 | 23 | 113 | 3.2 | 3.2 | 0.00 | 0.00 | 0.00 | 84 | 1007.7 |
| 20260905235808 | 23 | 52 | 0.0 | 1.6 | 0.00 | 0.00 | 0.00 | 84 | 1007.9 |
| 20260905235308 | 23 | 70 | 1.6 | 1.6 | 0.00 | 0.00 | 0.00 | 84 | 1007.7 |
| 20260905234804 | 23 | 43 | 0.0 | 1.6 | 0.00 | 0.00 | 0.00 | 84 | 1007.6 |
| 20260905234259 | 23 | 36 | 0.0 | 0.0 | 0.00 | 0.00 | 0.00 | 84 | 1007.7 |
| 20260905233754 | 23 | 52 | 0.0 | 0.0 | 0.00 | 0.00 | 0.00 | 84 | 1007.6 |
| 20260905233254 | 23 | 50 | 0.0 | 0.0 | 0.00 | 0.00 | 0.00 | 84 | 1007.8 |
| 20260905232753 | 23 | 92 | 3.2 | 3.2 | 0.00 | 0.00 | 0.00 | 84 | 1007.7 |
| 20260905232249 | 23 | 110 | 0.0 | 1.6 | 0.00 | 0.00 | 0.00 | 84 | 1007.7 |
| 20260905231745 | 23 | 52 | 0.0 | 1.6 | 0.00 | 0.00 | 0.00 | 84 | 1007.8 |
| 20260905231240 | 23 | 68 | 0.0 | 1.6 | 0.00 | 0.00 | 0.00 | 84 | 1007.9 |
| 20260905230736 | 23 | 37 | 0.0 | 1.6 | 0.00 | 0.00 | 0.00 | 84 | 1008.1 |
| 20260905230234 | 23 | 103 | 1.6 | 1.6 | 0.00 | 0.00 | 0.00 | 84 | 1007.8 |
| 20260905225733 | 23 | 89 | 1.6 | 3.2 | 0.00 | 0.00 | 0.00 | 83 | 1008.0 |
| 20260905225228 | 23 | 61 | 0.0 | 3.2 | 0.00 | 0.00 | 0.00 | 83 | 1007.8 |
| 20260905224727 | 23 | 92 | 0.0 | 0.0 | 0.00 | 0.00 | 0.00 | 83 | 1008.0 |
| 20260905224223 | 23 | 40 | 0.0 | 0.0 | 0.00 | 0.00 | 0.00 | 83 | 1008.1 |
| 20260905223720 | 23 | 59 | 0.0 | 0.0 | 0.00 | 0.00 | 0.00 | 83 | 1008.0 |
| 20260905223216 | 23 | 47 | 0.0 | 0.0 | 0.00 | 0.00 | 0.00 | 83 | 1008.0 |
| 20260905222711 | 23 | 48 | 0.0 | 0.0 | 0.00 | 0.00 | 0.00 | 83 | 1008.0 |
| 20260905222210 | 23 | 52 | 0.0 | 0.0 | 0.00 | 0.00 | 0.00 | 83 | 1008.2 |
| 20260905221706 | 23 | 72 | 0.0 | 0.0 | 0.00 | 0.00 | 0.00 | 83 | 1008.0 |
| 20260905221203 | 24 | 45 | 0.0 | 0.0 | 0.00 | 0.00 | 0.00 | 82 | 1008.2 |
| 20260905220659 | 24 | 89 | 1.6 | 1.6 | 0.00 | 0.00 | 0.00 | 82 | 1008.3 |
| 20260905220155 | 24 | 78 | 0.0 | 1.6 | 0.00 | 0.00 | 0.00 | 82 | 1008.3 |
| 20260905215648 | 24 | 64 | 0.0 | 1.6 | 0.00 | 0.00 | 0.00 | 82 | 1008.4 |
| 20260905215144 | 24 | 63 | 0.0 | 1.6 | 0.00 | 0.00 | 0.00 | 82 | 1008.3 |
| 20260905214641 | 24 | 102 | 1.6 | 1.6 | 0.00 | 0.00 | 0.00 | 82 | 1008.3 |
| 20260905214141 | 24 | 35 | 0.0 | 0.0 | 0.00 | 0.00 | 0.00 | 82 | 1008.5 |
| 20260905213636 | 24 | 24 | 0.0 | 0.0 | 0.00 | 0.00 | 0.00 | 82 | 1008.4 |
| 20260905213131 | 24 | 55 | 0.0 | 3.2 | 0.00 | 0.00 | 0.00 | 82 | 1008.4 |
| 20260905212626 | 24 | 105 | 0.0 | 3.2 | 0.00 | 0.00 | 0.00 | 82 | 1008.5 |
| 20260905212126 | 24 | 63 | 0.0 | 3.2 | 0.00 | 0.00 | 0.00 | 82 | 1008.5 |
| 20260905211621 | 24 | 68 | 1.6 | 3.2 | 0.00 | 0.00 | 0.00 | 82 | 1008.4 |
| 20260905211116 | 25 | 52 | 0.0 | 1.6 | 0.00 | 0.00 | 0.00 | 81 | 1008.6 |
| 20260905210613 | 24 | 36 | 0.0 | 1.6 | 0.00 | 0.00 | 0.00 | 81 | 1008.7 |
| 20260905210108 | 25 | 45 | 0.0 | 1.6 | 0.00 | 0.00 | 0.00 | 81 | 1008.6 |
| 20260905205607 | 25 | 75 | 1.6 | 3.2 | 0.00 | 0.00 | 0.00 | 81 | 1008.6 |
| 20260905205106 | 25 | 43 | 0.0 | 0.0 | 0.00 | 0.00 | 0.00 | 81 | 1008.5 |
| 20260905204601 | 25 | 55 | 0.0 | 1.6 | 0.00 | 0.00 | 0.00 | 81 | 1008.7 |
| 20260905204056 | 25 | 49 | 0.0 | 1.6 | 0.00 | 0.00 | 0.00 | 80 | 1008.5 |
| 20260905203555 | 25 | 96 | 3.2 | 3.2 | 0.00 | 0.00 | 0.00 | 81 | 1008.6 |
| 20260905203051 | 25 | 40 | 0.0 | 1.6 | 0.00 | 0.00 | 0.00 | 80 | 1008.6 |
| 20260905202546 | 25 | 42 | 1.6 | 1.6 | 0.00 | 0.00 | 0.00 | 80 | 1008.6 |
| 20260905202042 | 25 | 35 | 0.0 | 1.6 | 0.00 | 0.00 | 0.00 | 80 | 1008.7 |
| 20260905201537 | 25 | 38 | 0.0 | 1.6 | 0.00 | 0.00 | 0.00 | 80 | 1008.6 |
| 20260905201036 | 25 | 123 | 0.0 | 1.6 | 0.00 | 0.00 | 0.00 | 80 | 1008.6 |
| 20260905200532 | 25 | 27 | 0.0 | 1.6 | 0.00 | 0.00 | 0.00 | 80 | 1008.8 |
| 20260905200032 | 25 | 211 | 1.6 | 1.6 | 0.00 | 0.00 | 0.00 | 80 | 1008.7 |
| 20260905195526 | 25 | 45 | 0.0 | 0.0 | 0.00 | 0.00 | 0.00 | 79 | 1008.7 |
| 20260905195021 | 25 | 44 | 0.0 | 0.0 | 0.00 | 0.00 | 0.00 | 79 | 1008.5 |
| 20260905194515 | 25 | 38 | 0.0 | 0.0 | 0.00 | 0.00 | 0.00 | 79 | 1008.7 |
| 20260905194010 | 26 | 149 | 0.0 | 1.6 | 0.00 | 0.00 | 0.00 | 79 | 1008.7 |
| 20260905193510 | 25 | 99 | 0.0 | 1.6 | 0.00 | 0.00 | 0.00 | 79 | 1008.6 |
| 20260905193005 | 25 | 59 | 0.0 | 0.0 | 0.00 | 0.00 | 0.00 | 79 | 1008.8 |
| 20260905192500 | 26 | 58 | 0.0 | 0.0 | 0.00 | 0.00 | 0.00 | 79 | 1008.8 |
| 20260905191956 | 26 | 73 | 0.0 | 1.6 | 0.00 | 0.00 | 0.00 | 79 | 1008.6 |
| 20260905191450 | 26 | 11 | 0.0 | 1.6 | 0.00 | 0.00 | 0.00 | 79 | 1008.9 |
| 20260905190949 | 26 | 6 | 0.0 | 1.6 | 0.00 | 0.00 | 0.00 | 78 | 1008.8 |
| 20260905190447 | 26 | 104 | 1.6 | 1.6 | 0.00 | 0.00 | 0.00 | 78 | 1008.6 |
| 20260905185946 | 26 | 131 | 1.6 | 1.6 | 0.00 | 0.00 | 0.00 | 78 | 1008.7 |
| 20260905185441 | 26 | 122 | 1.6 | 1.6 | 0.00 | 0.00 | 0.00 | 78 | 1008.9 |
| 20260905184939 | 26 | 78 | 0.0 | 0.0 | 0.00 | 0.00 | 0.00 | 78 | 1008.9 |
| 20260905184434 | 26 | 76 | 0.0 | 1.6 | 0.00 | 0.00 | 0.00 | 79 | 1008.7 |
| 20260905183933 | 26 | 110 | 0.0 | 1.6 | 0.00 | 0.00 | 0.00 | 78 | 1009.0 |
| 20260905183422 | 26 | 49 | 0.0 | 0.0 | 0.00 | 0.00 | 0.00 | 78 | 1009.0 |
| 20260905182918 | 26 | 37 | 0.0 | 0.0 | 0.00 | 0.00 | 0.00 | 79 | 1008.9 |
| 20260905182416 | 26 | 43 | 0.0 | 0.0 | 0.00 | 0.00 | 0.00 | 78 | 1008.8 |
| 20260905181912 | 26 | 43 | 0.0 | 0.0 | 0.00 | 0.00 | 0.00 | 78 | 1008.7 |
| 20260905181412 | 26 | 43 | 0.0 | 0.0 | 0.00 | 0.00 | 0.00 | 78 | 1008.9 |
| 20260905180912 | 26 | 44 | 0.0 | 0.0 | 0.00 | 0.00 | 0.00 | 78 | 1008.8 |
| 20260905180406 | 26 | 29 | 0.0 | 0.0 | 0.00 | 0.00 | 0.00 | 78 | 1008.9 |
| 20260905175901 | 26 | 30 | 0.0 | 0.0 | 0.00 | 0.00 | 0.00 | 78 | 1008.8 |
| 20260905175400 | 26 | 26 | 0.0 | 0.0 | 0.00 | 0.00 | 0.00 | 77 | 1009.0 |
| 20260905174855 | 26 | 23 | 0.0 | 1.6 | 0.00 | 0.00 | 0.00 | 77 | 1008.9 |
| 20260905174351 | 26 | 4 | 1.6 | 1.6 | 0.00 | 0.00 | 0.00 | 77 | 1009.0 |
| 20260905173847 | 26 | 8 | 1.6 | 1.6 | 0.00 | 0.00 | 0.00 | 77 | 1008.8 |
| 20260905173343 | 26 | 346 | 1.6 | 1.6 | 0.00 | 0.00 | 0.00 | 76 | 1008.7 |
| 20260905172838 | 26 | 305 | 1.6 | 3.2 | 0.00 | 0.00 | 0.00 | 76 | 1008.8 |
| 20260905172336 | 26 | 300 | 3.2 | 4.8 | 0.00 | 0.00 | 0.00 | 76 | 1008.7 |
| 20260905171832 | 26 | 6 | 1.6 | 4.8 | 0.00 | 0.00 | 0.00 | 76 | 1008.6 |
| 20260905171329 | 26 | 317 | 3.2 | 3.2 | 0.00 | 0.00 | 0.00 | 76 | 1008.6 |
| 20260905170825 | 26 | 277 | 6.4 | 8.0 | 0.00 | 0.00 | 0.00 | 76 | 1008.5 |
| 20260905170320 | 26 | 322 | 3.2 | 4.8 | 0.00 | 0.00 | 0.00 | 76 | 1008.4 |
| 20260905165819 | 26 | 326 | 6.4 | 8.0 | 0.00 | 0.00 | 0.00 | 76 | 1008.5 |
| 20260905165310 | 27 | 335 | 3.2 | 4.8 | 0.00 | 0.00 | 0.00 | 76 | 1008.4 |
| 20260905164809 | 27 | 329 | 3.2 | 4.8 | 0.00 | 0.00 | 0.00 | 75 | 1008.1 |
| 20260905164304 | 27 | 293 | 4.8 | 4.8 | 0.00 | 0.00 | 0.00 | 75 | 1008.1 |
| 20260905163759 | 27 | 341 | 4.8 | 8.0 | 0.00 | 0.00 | 0.00 | 75 | 1008.0 |
| 20260905163256 | 27 | 260 | 3.2 | 3.2 | 0.00 | 0.00 | 0.00 | 74 | 1007.9 |
| 20260905162751 | 27 | 20 | 3.2 | 3.2 | 0.00 | 0.00 | 0.00 | 74 | 1008.0 |
| 20260905162250 | 27 | 316 | 3.2 | 4.8 | 0.00 | 0.00 | 0.00 | 74 | 1008.0 |
| 20260905161745 | 27 | 334 | 6.4 | 9.7 | 0.00 | 0.00 | 0.00 | 73 | 1008.0 |
| 20260905161244 | 27 | 264 | 4.8 | 9.7 | 0.00 | 0.00 | 0.00 | 73 | 1008.0 |
| 20260905160743 | 27 | 342 | 6.4 | 9.7 | 0.00 | 0.00 | 0.00 | 73 | 1008.1 |
| 20260905160238 | 27 | 332 | 4.8 | 4.8 | 0.00 | 0.00 | 0.00 | 72 | 1008.0 |
| 20260905155732 | 27 | 283 | 8.0 | 9.7 | 0.00 | 0.00 | 0.00 | 72 | 1008.0 |
| 20260905155230 | 27 | 291 | 8.0 | 9.7 | 0.00 | 0.00 | 0.00 | 72 | 1007.9 |
| 20260905154720 | 27 | 344 | 4.8 | 9.7 | 0.00 | 0.00 | 0.00 | 72 | 1007.9 |
| 20260905154215 | 27 | 343 | 6.4 | 11.3 | 0.00 | 0.00 | 0.00 | 71 | 1007.9 |
| 20260905153711 | 28 | 305 | 9.7 | 11.3 | 0.00 | 0.00 | 0.00 | 71 | 1008.0 |
| 20260905153207 | 28 | 337 | 11.3 | 12.9 | 0.00 | 0.00 | 0.00 | 70 | 1008.0 |
| 20260905152701 | 28 | 300 | 6.4 | 11.3 | 0.00 | 0.00 | 0.00 | 70 | 1007.7 |
| 20260905152156 | 28 | 0 | 8.0 | 11.3 | 0.00 | 0.00 | 0.00 | 70 | 1008.0 |
| 20260905151656 | 28 | 338 | 9.7 | 14.5 | 0.00 | 0.00 | 0.00 | 69 | 1007.9 |
| 20260905151151 | 28 | 14 | 4.8 | 12.9 | 0.00 | 0.00 | 0.00 | 69 | 1007.6 |
| 20260905150652 | 28 | 355 | 6.4 | 11.3 | 0.00 | 0.00 | 0.00 | 69 | 1007.9 |
| 20260905150151 | 28 | 359 | 11.3 | 12.9 | 0.00 | 0.00 | 0.00 | 68 | 1007.7 |
| 20260905145649 | 29 | 334 | 14.5 | 22.5 | 0.00 | 0.00 | 0.00 | 68 | 1007.7 |
| 20260905145149 | 28 | 337 | 8.0 | 11.3 | 0.00 | 0.00 | 0.00 | 68 | 1007.7 |
| 20260905144643 | 28 | 293 | 11.3 | 16.1 | 0.00 | 0.00 | 0.00 | 68 | 1007.7 |
| 20260905144142 | 28 | 257 | 9.7 | 14.5 | 0.00 | 0.00 | 0.00 | 68 | 1007.7 |
| 20260905143637 | 29 | 358 | 12.9 | 20.9 | 0.00 | 0.00 | 0.00 | 67 | 1007.5 |
| 20260905143137 | 29 | 335 | 14.5 | 16.1 | 0.00 | 0.00 | 0.00 | 66 | 1007.6 |
| 20260905142636 | 29 | 300 | 3.2 | 17.7 | 0.00 | 0.00 | 0.00 | 66 | 1007.4 |
| 20260905142130 | 29 | 264 | 14.5 | 16.1 | 0.00 | 0.00 | 0.00 | 66 | 1007.5 |
| 20260905141625 | 29 | 9 | 8.0 | 17.7 | 0.00 | 0.00 | 0.00 | 66 | 1007.4 |
| 20260905141121 | 30 | 342 | 8.0 | 12.9 | 0.00 | 0.00 | 0.00 | 65 | 1007.6 |
| 20260905140616 | 29 | 287 | 11.3 | 17.7 | 0.00 | 0.00 | 0.00 | 66 | 1007.3 |
| 20260905140115 | 30 | 267 | 11.3 | 16.1 | 0.00 | 0.00 | 0.00 | 65 | 1007.6 |
| 20260905135611 | 30 | 323 | 8.0 | 14.5 | 0.00 | 0.00 | 0.00 | 65 | 1007.2 |
| 20260905135106 | 30 | 324 | 14.5 | 16.1 | 0.00 | 0.00 | 0.00 | 64 | 1007.3 |
| 20260905134601 | 30 | 280 | 9.7 | 16.1 | 0.00 | 0.00 | 0.00 | 63 | 1007.2 |
| 20260905134059 | 30 | 333 | 9.7 | 16.1 | 0.00 | 0.00 | 0.00 | 64 | 1007.2 |
| 20260905133555 | 30 | 251 | 14.5 | 16.1 | 0.00 | 0.00 | 0.00 | 63 | 1007.2 |
| 20260905133054 | 30 | 247 | 14.5 | 17.7 | 0.00 | 0.00 | 0.00 | 64 | 1007.1 |
| 20260905132554 | 30 | 276 | 6.4 | 16.1 | 0.00 | 0.00 | 0.00 | 65 | 1007.2 |
| 20260905132049 | 30 | 343 | 14.5 | 24.1 | 0.00 | 0.00 | 0.00 | 63 | 1007.3 |